This is the latest recevied weather packets stored in our database for station/object KF6FPU-15. If no packets are shown the sender has not sent any weather packets the latest 1 day(s).
| Time | Temp. | Humidity | Pressure | Rain* | Wind** | Luminosity | Snow |
|---|---|---|---|---|---|---|---|
| 1778019106 | 33.89° C | 18% | 1015 hPa | - | 0 m/s | - | - |
| 1778018506 | 33.33° C | 18% | 1015.1 hPa | - | 0 m/s | - | - |
| 1778017906 | 33.33° C | 18% | 1015.1 hPa | - | 0 m/s | - | - |
| 1778017306 | 36.67° C | 18% | 1015.1 hPa | - | 0 m/s | - | - |
| 1778016706 | 36.67° C | 18% | 1015.2 hPa | - | 0 m/s | - | - |
| 1778015506 | 36.11° C | 18% | 1015.2 hPa | - | 0 m/s | - | - |
| 1778014906 | 36.11° C | 18% | 1015.3 hPa | - | 0 m/s | - | - |
| 1778014306 | 35.56° C | 18% | 1015.4 hPa | - | 0 m/s | - | - |
| 1778013706 | 35.56° C | 18% | 1015.4 hPa | - | 0 m/s | - | - |
| 1778013106 | 35° C | 18% | 1015.5 hPa | - | 0 m/s | - | - |
| 1778012506 | 35° C | 19% | 1015.5 hPa | - | 0 m/s | - | - |
| 1778011906 | 35° C | 19% | 1015.5 hPa | - | 0 m/s | - | - |
| 1778011306 | 34.44° C | 19% | 1015.5 hPa | - | 0 m/s | - | - |
| 1778010706 | 33.89° C | 19% | 1015.7 hPa | - | 0 m/s | - | - |
| 1778010106 | 32.78° C | 19% | 1015.7 hPa | - | 0 m/s | - | - |
| 1778008906 | 30.56° C | 20% | 1015.8 hPa | - | 0 m/s | - | - |
| 1778008306 | 28.89° C | 20% | 1015.8 hPa | - | 0 m/s | - | - |
| 1778007706 | 27.22° C | 20% | 1015.8 hPa | - | 0 m/s | - | - |
| 1778007106 | 27.22° C | 20% | 1015.8 hPa | - | 0 m/s | - | - |
| 1778006506 | 27.22° C | 20% | 1015.7 hPa | - | 0 m/s | - | - |
| 1778005906 | 27.22° C | 21% | 1015.6 hPa | - | 0 m/s | - | - |
| 1778005306 | 27.22° C | 21% | 1015.5 hPa | - | 0 m/s | - | - |
| 1778004706 | 27.22° C | 20% | 1015.5 hPa | - | 0 m/s | - | - |
| 1778004106 | 27.22° C | 21% | 1015.5 hPa | - | 0 m/s | - | - |
| 1778003506 | 26.67° C | 21% | 1015.4 hPa | - | 0 m/s | - | - |
* Rain since midnight (hover to see other rain measurements)
** Current wind speed in m/s (hover to see current wind gust speed)